Date String (YYYY-MM-DD hh:mm:ss) UTC,Instrument flags,Ambient pressure (hPa),Sample flow (lpm),Bypass flow (lpm),Sample temperature (°C),Ambient temperature (°C),ASC tube jacket temperature (°C),LED temperature (°C),Box temperature (°C),Sample RH (%),Span deviation,Mass concentration (μg/m³),Mass concentration (μg/m³),Mass concentration (μg/m³)
DateTimeUTC,F1_M11,P_M11,Q1_M11,Q2_M11,T1_M11,T2_M11,T3_M11,T4_M11,T5_M11,U1_M11,ZSPAN_M11,X0_M11,X2_M11,X1_M11
2021-10-21 04:00:00,,0831.3,5.00,0.00,27.1,26.3,00.0,36.2,28.9,12.5,0000.0,0013.01,0003.81,0002.82
2021-10-21 04:01:00,,0831.4,5.01,0.00,27.1,26.3,00.0,36.2,28.9,12.5,0000.0,0012.95,0003.79,0002.79
2021-10-21 04:02:00,,0831.4,5.00,0.00,27.1,26.3,00.0,36.2,28.9,12.4,0000.0,0012.02,0003.76,0002.79
2021-10-21 04:03:00,,0831.4,5.00,0.00,27.1,26.3,00.0,36.2,28.9,12.5,0000.0,0011.04,0003.75,0002.81
2021-10-21 04:04:00,,0831.4,5.01,0.00,27.1,26.3,00.0,36.2,28.9,12.5,0000.0,0011.03,0003.75,0002.81
2021-10-21 04:05:00,,0831.3,5.00,0.00,27.1,26.3,00.0,36.2,28.8,12.5,0000.0,0011.18,0003.75,0002.82
2021-10-21 04:06:00,,0831.3,4.98,0.00,27.1,26.3,00.0,36.2,28.8,12.5,0000.0,0011.20,0003.77,0002.82
2021-10-21 04:07:00,,0831.3,5.00,0.00,27.1,26.3,00.0,36.2,28.8,12.5,0000.0,0011.83,0003.75,0002.84
2021-10-21 04:08:00,,0831.2,5.01,0.00,27.1,26.3,00.0,36.2,28.8,12.6,0000.0,0011.99,0003.71,0002.82
2021-10-21 04:09:00,,0831.2,5.00,0.00,27.1,26.3,00.0,36.2,28.8,12.7,0000.0,0011.27,0003.70,0002.87
2021-10-21 04:10:00,,0831.2,5.01,0.00,27.1,26.3,00.0,36.2,28.9,12.7,0000.0,0011.02,0003.70,0002.92
2021-10-21 04:11:00,,0831.2,4.99,0.00,27.1,26.3,00.0,36.2,28.9,12.7,0000.0,0011.11,0003.73,0002.98
2021-10-21 04:12:00,,0831.2,5.00,0.00,27.0,26.3,00.0,36.2,28.9,12.7,0000.0,0010.89,0003.77,0003.04
2021-10-21 04:13:00,,0831.2,5.02,0.00,27.0,26.3,00.0,36.1,28.8,12.6,0000.0,0011.15,0003.81,0003.08
2021-10-21 04:14:00,,0831.2,4.99,0.00,27.0,26.2,00.0,36.1,28.8,12.6,0000.0,0011.27,0003.83,0003.05
2021-10-21 04:15:00,,0831.2,5.00,0.00,27.0,26.2,00.0,36.1,28.8,12.6,0000.0,0011.90,0003.82,0003.05
2021-10-21 04:16:00,,0831.2,5.01,0.00,27.0,26.2,00.0,36.1,28.8,12.7,0000.0,0011.80,0003.83,0003.06
2021-10-21 04:17:00,,0831.2,5.00,0.00,27.0,26.3,00.0,36.1,28.8,12.7,0000.0,0011.56,0003.82,0003.10
2021-10-21 04:18:00,,0831.2,5.00,0.00,27.0,26.3,00.0,36.1,28.8,12.8,0000.0,0011.34,0003.90,0003.16
2021-10-21 04:19:00,,0831.2,4.99,0.00,27.0,26.3,00.0,36.1,28.8,12.8,0000.0,0011.60,0004.00,0003.23
2021-10-21 04:20:00,,0831.2,5.00,0.00,27.0,26.3,00.0,36.1,28.8,12.8,0000.0,0011.54,0004.04,0003.27
2021-10-21 04:21:00,,0831.1,5.00,0.00,27.0,26.3,00.0,36.1,28.8,12.7,0000.0,0010.87,0004.04,0003.30
2021-10-21 04:22:00,,0831.2,5.01,0.00,27.0,26.3,00.0,36.1,28.8,12.7,0000.0,0010.32,0004.04,0003.31
2021-10-21 04:23:00,,0831.2,5.01,0.00,27.0,26.3,00.0,36.1,28.8,12.7,0000.0,0010.18,0004.01,0003.31
2021-10-21 04:24:00,,0831.2,5.00,0.00,27.0,26.3,00.0,36.1,28.8,12.7,0000.0,0009.99,0004.01,0003.32
2021-10-21 04:25:00,,0831.2,4.99,0.00,27.0,26.2,00.0,36.1,28.9,12.7,0000.0,0009.65,0004.04,0003.35
2021-10-21 04:26:00,,0831.2,5.01,0.00,27.0,26.2,00.0,36.1,28.8,12.7,0000.0,0010.97,0004.15,0003.37
2021-10-21 04:27:00,,0831.2,5.00,0.00,27.0,26.2,00.0,36.1,28.8,12.7,0000.0,0011.57,0004.19,0003.40
2021-10-21 04:28:00,,0831.2,4.98,0.00,27.0,26.2,00.0,36.1,28.8,12.8,0000.0,0011.73,0004.20,0003.42
2021-10-21 04:29:00,,0831.2,5.00,0.00,27.0,26.2,00.0,36.1,28.8,12.8,0000.0,0011.88,0004.17,0003.39
2021-10-21 04:30:00,,0831.3,5.00,0.00,27.0,26.2,00.0,36.1,28.8,12.7,0000.0,0011.37,0004.12,0003.35
2021-10-21 04:31:00,,0831.3,5.01,0.00,27.0,26.2,00.0,36.1,28.8,12.8,0000.0,0011.37,0004.09,0003.33
2021-10-21 04:32:00,,0831.3,5.00,0.00,27.0,26.2,00.0,36.1,28.8,12.8,0000.0,0012.31,0004.12,0003.34
2021-10-21 04:33:00,,0831.2,5.00,0.00,27.0,26.2,00.0,36.1,28.8,12.8,0000.0,0013.59,0004.16,0003.37
2021-10-21 04:34:00,,0831.3,5.00,0.00,27.0,26.2,00.0,36.1,28.8,12.8,0000.0,0015.02,0004.25,0003.41
2021-10-21 04:35:00,,0831.2,4.99,0.00,27.0,26.2,00.0,36.1,28.8,12.9,0000.0,0015.59,0004.29,0003.46
2021-10-21 04:36:00,,0831.2,5.01,0.00,27.0,26.2,00.0,36.1,28.8,12.9,0000.0,0015.54,0004.32,0003.51
2021-10-21 04:37:00,,0831.2,4.99,0.00,27.0,26.2,00.0,36.1,28.8,12.9,0000.0,0014.22,0004.30,0003.56
2021-10-21 04:38:00,,0831.2,4.99,0.00,27.0,26.2,00.0,36.1,28.8,12.9,0000.0,0014.07,0004.36,0003.62
2021-10-21 04:39:00,,0831.2,5.00,0.00,27.0,26.2,00.0,36.1,28.8,12.9,0000.0,0014.09,0004.42,0003.66
2021-10-21 04:40:00,,0831.1,4.99,0.00,27.0,26.2,00.0,36.1,28.8,13.0,0000.0,0013.61,0004.48,0003.71
2021-10-21 04:41:00,,0831.1,5.01,0.00,27.0,26.2,00.0,36.1,28.8,13.0,0000.0,0014.18,0004.56,0003.78
2021-10-21 04:42:00,,0831.2,4.99,0.00,27.0,26.2,00.0,36.1,28.8,13.0,0000.0,0015.03,0004.65,0003.84
2021-10-21 04:43:00,,0831.2,5.01,0.00,27.0,26.2,00.0,36.1,28.8,13.0,0000.0,0014.11,0004.67,0003.87
2021-10-21 04:44:00,,0831.2,4.99,0.00,27.0,26.2,00.0,36.1,28.8,13.0,0000.0,0013.19,0004.69,0003.90
2021-10-21 04:45:00,,0831.2,5.02,0.00,27.0,26.2,00.0,36.1,28.8,13.0,0000.0,0012.68,0004.67,0003.93
2021-10-21 04:46:00,,0831.2,4.99,0.00,27.0,26.2,00.0,36.1,28.8,12.9,0000.0,0012.65,0004.70,0003.94
2021-10-21 04:47:00,,0831.2,5.00,0.00,27.0,26.2,00.0,36.1,28.8,13.0,0000.0,0013.46,0004.73,0003.95
2021-10-21 04:48:00,,0831.2,5.01,0.00,27.0,26.2,00.0,36.1,28.8,13.0,0000.0,0013.19,0004.77,0003.95
2021-10-21 04:49:00,,0831.2,4.99,0.00,27.0,26.2,00.0,36.1,28.8,13.0,0000.0,0012.71,0004.76,0003.95
2021-10-21 04:50:00,,0831.2,5.01,0.00,27.0,26.2,00.0,36.1,28.8,13.0,0000.0,0013.33,0004.77,0003.95
2021-10-21 04:51:00,,0831.2,4.99,0.00,27.0,26.2,00.0,36.1,28.8,13.0,0000.0,0014.25,0004.76,0003.95
2021-10-21 04:52:00,,0831.2,5.01,0.00,27.0,26.2,00.0,36.1,28.8,13.0,0000.0,0014.57,0004.74,0003.93
2021-10-21 04:53:00,,0831.2,5.00,0.00,27.0,26.2,00.0,36.1,28.8,13.0,0000.0,0014.69,0004.74,0003.90
2021-10-21 04:54:00,,0831.2,5.01,0.00,27.0,26.2,00.0,36.1,28.8,13.0,0000.0,0016.28,0004.78,0003.89
2021-10-21 04:55:00,,0831.2,5.01,0.00,27.0,26.2,00.0,36.1,28.8,13.0,0000.0,0016.66,0004.76,0003.86
2021-10-21 04:56:00,,0831.2,5.00,0.00,27.0,26.2,00.0,36.1,28.8,13.0,0000.0,0015.89,0004.73,0003.84
2021-10-21 04:57:00,,0831.2,5.00,0.00,27.0,26.2,00.0,36.1,28.8,13.0,0000.0,0015.52,0004.68,0003.82
2021-10-21 04:58:00,,0831.2,4.99,0.00,27.0,26.2,00.0,36.1,28.9,13.0,0000.0,0014.77,0004.68,0003.81
2021-10-21 04:59:00,,0831.2,5.00,0.00,27.0,26.2,00.0,36.1,28.9,13.0,0000.0,0014.45,0004.64,0003.80
